Weather in Shyshaky

Ukraine / Poltava Region     49°51′14″N   33°18′05″E
temp.,
°C
wind,
m/s
gust,
m/s
humid.,
%
clouds,
%
prec.,
mm/h
press.,
hPa
HPBL,
m
13 may, thu
thu1300:00+6nne33969 0.1 101240
03:00+5ene11955 0.1 101210
06:00+6wnw009515 0.0 101110
09:00+11s347624 0.0 1012714
12:00+13s3466100 0.1 10121031
15:00+17s56526 0.1 10121788
18:00+17s355975 0.0 1011920
21:00+12se467499 0.0 101295
14 may, fri
fri1400:00+11se4672100 0.0 101196
03:00+11ese346851 0.0 101169
06:00+11e3881100 0.0 1010164
09:00+17se477389 0.1 1009458
12:00+21sse6764100 0.0 10081472
15:00+23s7951100 0.1 10071841
18:00+21s69605 0.0 10061150
21:00+14ssw49870 0.6 1008160
15 may, sat
sat1500:00+12wsw38946 0.0 1009171
03:00+10sw3494100 0.0 101075
06:00+11ssw35946 0.0 1011117
09:00+16ssw467796 0.0 1012589
12:00+20sw57603 0.1 10121397
15:00+22sw5750100 0.1 10122345
18:00+18ssw357290 0.5 1012119
21:00+16sw017351 0.7 101311
16 may, sun
sun1600:00+14ese227991 0.0 101312
03:00+13nne118347 0.0 101310
06:00+13ene22865 0.0 101417
09:00+19ene22694 0.0 1014429
12:00+23e335398 0.0 10131406
15:00+24ese234770 0.0 10122089
18:00+24ese24558 0.0 10111491
21:00+18ene3470100 0.0 101042
17 may, mon
mon1700:00+16ene467595 0.0 101081
03:00+16ne41080100 0.0 1008171
06:00+15ne3794100 1.8 1007167
09:00+19nne3379100 2.6 1006315
12:00+23ene3462100 0.0 1005994
15:00+25sse5658100 0.0 10041673
18:00+21wnw668110 1.1 1005460
21:00+16nw51095100 6.6 1006353